Location: Arborea
(39.7744°N, 8.5819°E)
Time: 23:03:33
(UTC+00:00)

Cosmos 1000 Rocket - Pass Details

Date: 05 October 2023
Orbit: 952 x 993 km, 82.9° (Epoch: 03 December)

Event Time Altitude Azimuth Distance (km) Brightness Sun altitude
Exits shadow 19:26:00 18° 30° (NNE) 2,239 6.3 -28.1°
Drops below altitude 10° 19:27:36 10° 22° (NNE) 2,764 6.8 -28.4°
Sets 19:30:16 0° 15° (NNE) 3,715 7.6 -28.9°
